SCP
0 0 0 0 0 0 0 0 0 0 0 0 0 0 0 -0 0 0 0 0 0 0 0 0 0 0 0 0 0 0 0 0 0 0 0 0 0 0 0 0 0 0 0 0
0 0 0 0 0 0 0 0 0 0 0 0 0 0 0 -0 0 0 0 0 0 0 0 0 0 0 0 0 0 0 0 0 0 0 0 0 0 0 0 0 0 0 0 0
0 0 0 0 0 0 0 0 0 0 0 0 0 0 0 -0 0 0 0 0 0 0 0 0 0 0 0 0 0 0 0 0 0 0 0 0 0 0 0 0 0 0 0 0
0 0 0 0 0 0 0 0 0 0 0 0 0 0 0 0 0 0 0 0 0 0 0 0 0 0 0 0 0 0 0 0 0 0 0 0 0 0 0 0 0 0 0 0
0 0 0 0 0 0 0 0 0 0 0 0 0 0 0 0 0 0 0 0 0 0 0 0 0 0 0 0 0 0 0 0 0 0 0 0 0 0 0 0 0 0 0 0
0 0 0 0 0 0 0 0 0 0 0 0 0 0 0 0 0 0 0 0 0 0 0 0 0 0 0 0 0 0 0 0 0 0 0 0 0 0 0 0 0 0 0 0
0 0 0 0 0 0 0 0 0 0 0 0 0 0 0 0 0 0 0 0 0 0 0 0 0 0 0 0 0 0 0 0 0 0 0 0 0 0 0 0 0 0 0 0
0 0 0 0 0 0 0 0 0 0 0 0 0 0 0 0 0 0 0 0 0 0 0 0 0 0 0 0 0 0 0 0 0 0 0 0 0 0 0 0 0 0 0 0
0 0 0 0 0 0 0 0 0 0 0 0 0 0 0 0 0 0 0 0 0 0 0 0 0 0 0 0 0 0 0 0 0 0 0 0 0 0 0 0 0 0 0 0
0 0 0 0 0 0 0 0 0 0 0 0 0 0 0 0 0 0 0 0 0 0 0 0 0 0 0 0 0 0 0 0 0 0 0 0 0 0 0 0 0 0 0 0
0 0 0 -0 -0 -0 0 0 0 0 0 0 0 0 0 0 0 0 0 0 0 0 0 0 0 0 0 0 0 0 0 0 0 0 0 0 0 0 0 0 0 0 0 0
0 0 0 -0 -0 -0 0 0 0 0 0 0 0 0 0 0 0 0 0 0 0 0 0 0 0 0 0 0 0 0 0 0 0 0 0 0 0 0 0 0 0 0 0 0
0 0 0 0 -0 -0 0 0 0 0 0 0 0 0 0 0 0 0 0 0 0 0 0 0 0 0 0 0 0 0 0 0 0 0 0 0 0 0 0 0 0 0 0 0
0 0 0 0 0 0 0 0 0 0 0 0 0 0 0 0 0 0 0 0 0 0 0 0 0 0 0 0 0 0 0 0 0 0 0 0 0 0 0 0 0 0 0 0
0 0 0 0 0 0 0 0 0 0 0 0 0 0 0 0 0 0 0 0 0 0 0 0 0 0 0 0 0 0 0 0 0 0 0 0 0 0 0 0 0 0 0 0
0 0 0 0 0 0 0 0 0 0 0 0 0 0 0 0 0 0 0 0 0 0 0 0 0 0 0 0 0 0 0 0 0 0 0 0 0 0 0 0 0 0 0 0
0 0 0 0 0 0 0 0 0 0 0 0 0 0 0 0 0 0 0 0 0 0 0 0 0 0 0 0 0 0 0 0 0 0 0 0 0 0 0 0 0 0 0 0
0 0 0 0 0 0 0 0 0 0 0 0 0 0 0 0 0 0 0 0 0 0 0 0 0 0 0 0 0 0 0 0 0 0 0 0 0 0 0 0 0 0 0 0
0 0 0 0 0 0 0 0 0 0 0 0 0 0 0 0 0 0 0 0 0 0 0 0 0 0 0 0 0 0 0 0 0 0 0 0 0 0 0 0 0 0 0 0
0 0 0 0 0 0 0 0 0 0 0 0 0 0 0 0 0 0 0 0 0 0 0 0 0 0 0 0 0 0 0 0 0 0 0 0 0 0 0 0 0 0 0 0
0 0 0 0 0 0 0 0 0 0 0 0 0 0 0 0 0 0 0 0 0 0 0 0 0 0 0 0 0 0 0 0 0 0 0 0 0 0 0 0 0 0 0 0
0 0 0 0 0 0 0 0 0 0 0 0 0 0 0 0 0 0 0 0 0 0 0 0 0 0 0 0 0 0 0 0 0 0 0 0 0 0 0 0 0 0 0 0
0 0 0 0 0 0 0 0 0 0 0 0 0 0 0 0 0 0 0 0 0 0 0 0 0 0 0 0 0 0 0 0 0 0 0 0 0 0 0 0 0 0 0 0
0 0 0 0 0 0 0 0 0 0 0 0 0 0 0 0 0 0 0 0 0 0 0 0 0 0 0 0 0 0 0 0 0 0 0 0 0 0 0 0 0 0 0 0
0 0 0 0 0 0 0 0 0 0 0 0 0 0 0 0 0 0 0 0 0 0 0 0 0 0 0 0 0 0 0 0 0 0 0 0 0 0 0 0 0 0 0 0
0 0 0 0 0 0 0 0 0 0 0 0 0 0 0 0 0 0 0 0 0 0 0 0 0 0 0 0 0 0 0 0 0 0 0 0 0 0 0 0 0 0 0 0
0 0 0 0 0 0 0 0 0 0 0 0 0 0 0 0 0 0 0 0 0 0 0 0 0 0 0 0 0 0 0 0 0 0 0 0 0 0 0 0 0 0 0 0
Wind_Speed
13 11 9 11 13 14 17 16 15 15 17 15 10 7 6 5 4 4 4 4 5 5 5 5 5 6 6 7 8 9 9 9 9 8 8 7 7 7 6 6 6 6 5 5
13 13 12 13 14 16 18 19 20 19 20 13 10 8 7 5 5 5 6 6 6 6 6 6 6 6 7 7 7 8 9 9 8 8 8 8 8 7 7 6 6 6 6 6
10 10 10 14 16 16 16 18 17 21 20 10 11 11 9 7 6 7 6 6 6 7 7 7 7 7 8 8 7 8 8 8 8 8 8 8 7 7 7 7 6 6 6 6
6 6 14 11 8 13 16 18 16 15 13 11 11 10 8 8 7 7 6 6 6 6 6 5 5 5 5 6 7 8 8 8 8 8 8 7 8 7 7 6 6 6 5 5
5 8 11 9 8 10 13 15 13 15 15 12 9 8 9 7 6 7 6 5 5 5 5 5 5 5 5 6 6 7 8 8 8 8 8 8 8 8 6 6 5 5 5 5
6 7 10 7 5 5 6 12 9 11 12 9 6 8 9 6 6 6 4 3 3 3 3 3 4 5 6 6 7 8 8 8 7 8 8 8 8 7 5 5 5 5 4 5
10 10 10 7 4 2 7 7 2 4 6 5 6 9 7 4 4 4 4 3 2 3 3 4 4 6 6 6 7 7 6 6 7 7 7 7 6 5 6 5 5 4 4 3
8 10 12 4 2 5 5 3 3 4 4 4 6 7 6 5 4 3 3 3 2 3 3 3 4 6 6 6 6 5 6 6 6 6 6 6 7 6 6 6 5 5 4 3
9 10 6 4 6 5 4 5 5 5 6 6 6 6 5 5 4 4 3 3 2 3 3 3 4 6 6 5 5 6 6 6 6 6 6 6 7 7 6 5 5 4 4 3
9 10 9 9 8 7 6 7 7 6 5 6 6 6 6 5 5 4 4 3 2 3 3 3 3 4 5 5 6 7 7 6 6 6 6 5 5 5 5 5 5 5 4 4
12 11 10 10 8 8 8 7 7 6 6 5 6 7 7 6 6 5 4 3 2 3 3 3 3 3 4 5 6 7 6 6 6 6 6 5 4 3 4 4 5 6 5 5
11 7 7 8 6 7 8 8 8 8 7 6 6 7 7 6 5 4 3 2 2 2 3 3 3 3 4 5 6 7 6 6 5 5 5 5 5 3 4 3 5 4 4 4
11 9 8 8 7 6 7 8 7 7 6 6 5 5 6 5 4 3 3 3 3 3 3 3 3 3 4 5 6 6 6 5 4 5 5 5 5 5 4 3 4 4 4 4
9 8 10 8 8 8 8 8 6 5 5 5 5 5 4 4 4 3 3 3 2 2 3 3 3 3 3 4 5 5 5 6 5 5 5 5 5 5 5 5 3 2 2 4
8 8 9 8 8 7 7 5 6 6 5 5 4 4 4 4 4 4 3 2 1 2 2 3 3 3 3 5 5 6 5 4 4 4 4 4 4 4 4 4 4 3 2 2
9 9 8 7 7 6 6 6 7 7 6 5 4 4 4 4 3 3 2 1 2 3 3 3 3 3 4 5 6 5 4 7 5 5 5 4 4 5 4 4 4 3 3 3
8 8 7 7 7 7 6 6 6 6 5 5 5 4 3 3 3 3 2 1 1 2 2 3 3 3 4 5 5 5 5 6 7 5 4 4 4 4 4 4 4 3 3 4
7 7 6 6 6 6 6 5 5 5 4 4 4 4 3 3 3 3 2 1 1 1 1 2 3 4 4 5 4 4 4 5 4 4 4 4 4 4 4 4 4 4 3 3
5 5 5 5 5 4 4 4 4 4 4 3 4 4 3 3 2 2 1 1 2 2 1 3 6 5 5 5 5 4 5 5 4 4 4 5 4 4 4 4 3 3 3 3
4 4 4 4 4 3 3 3 3 3 3 3 3 2 2 1 1 1 1 0 1 1 2 3 4 4 5 5 6 4 5 5 5 4 4 4 4 4 3 3 3 3 3 2
5 5 4 4 4 3 3 3 2 3 2 2 2 2 1 1 0 1 1 0 1 1 3 5 4 3 4 5 6 4 4 4 5 4 4 4 4 4 4 3 3 2 2 2
5 4 4 3 3 3 3 2 2 2 2 1 1 0 0 0 1 1 1 0 1 2 2 2 3 4 5 6 4 4 4 4 4 4 4 4 4 4 3 3 3 2 2 2
4 4 4 3 3 3 3 2 1 1 1 1 1 1 0 0 0 1 0 0 1 3 2 2 4 7 7 5 4 4 4 4 4 4 3 3 3 3 3 3 2 2 2 2
4 4 4 4 3 3 3 3 2 2 2 2 1 1 0 1 1 1 1 2 2 3 3 4 6 7 6 3 4 4 4 4 4 3 3 3 3 3 3 2 2 2 2 2
4 3 3 3 3 2 2 2 2 2 2 2 3 3 2 1 1 1 2 2 4 5 4 5 7 6 4 3 3 3 3 3 3 3 3 3 3 2 2 2 2 2 2 2
3 3 3 2 2 2 1 2 1 1 2 2 2 2 2 2 3 3 3 3 4 5 4 3 4 4 3 3 3 3 3 3 3 3 3 2 2 2 2 2 2 2 2 2
3 3 2 2 2 2 2 2 1 1 1 1 2 2 2 2 3 4 4 4 4 4 4 3 3 3 3 3 3 3 3 3 2 2 2 2 2 1 1 1 1 1 1 2
Wind_Direction
256 263 251 242 242 233 230 233 239 244 249 255 260 257 251 239 237 233 224 216 212 210 211 210 207 200 194 190 180 174 175 181 184 179 175 175 177 174 168 168 171 173 176 182
257 257 256 254 245 239 239 239 244 254 257 257 269 275 273 259 241 240 232 222 219 217 214 212 209 203 194 189 179 170 175 181 176 172 172 174 175 170 167 170 172 172 181 184
251 253 261 249 234 234 236 235 236 246 252 262 265 266 264 262 251 244 241 235 228 223 219 215 212 203 195 187 174 171 175 175 173 171 171 172 170 168 172 176 174 177 183 182
263 247 241 242 220 226 238 243 237 244 252 249 252 258 256 249 245 243 237 233 229 224 223 219 208 199 184 172 168 172 174 174 171 168 168 166 168 173 176 174 175 179 181 179
237 248 260 260 235 225 232 245 240 245 253 256 258 269 263 260 263 255 243 232 224 220 219 209 197 182 166 167 166 170 175 175 172 168 167 169 175 178 175 170 174 177 176 175
222 239 244 248 236 222 225 255 246 240 250 257 248 248 257 267 271 268 266 242 220 217 211 204 190 163 162 172 172 181 181 176 169 167 169 173 176 172 165 164 169 166 171 174
230 242 260 266 266 182 211 246 270 235 245 249 239 243 268 281 276 273 267 254 227 213 205 202 176 159 169 176 188 186 168 158 159 162 165 165 160 158 154 151 152 157 162 164
217 232 248 251 229 212 242 295 323 325 306 279 266 267 273 276 273 278 275 260 234 218 219 204 172 167 178 191 184 157 151 154 157 156 155 155 152 151 149 149 152 155 152 150
214 228 247 235 236 256 285 297 302 307 309 303 289 285 286 281 276 272 263 259 241 221 218 210 180 174 186 186 156 148 150 156 155 151 151 154 155 154 150 151 156 161 160 168
247 249 251 258 260 263 260 269 282 287 298 311 300 297 294 286 282 279 274 253 236 225 210 207 188 179 179 161 152 152 158 158 153 151 151 148 148 153 158 164 164 166 170 176
253 261 274 263 258 264 276 276 280 281 275 276 283 287 286 282 278 275 268 254 233 221 212 210 181 170 156 152 151 156 158 155 153 153 151 143 138 148 160 172 173 172 176 172
251 255 254 265 268 271 274 275 278 281 280 275 268 274 281 278 276 268 257 246 239 224 208 205 182 173 158 152 155 157 157 157 155 152 146 141 134 105 84 131 144 154 168 170
265 278 276 282 291 287 281 283 280 277 277 280 283 278 276 276 275 269 261 247 239 227 209 197 183 172 161 153 153 157 159 158 154 154 151 150 149 145 132 98 109 141 161 173
273 281 279 281 285 288 283 283 283 282 280 274 275 276 275 273 271 266 260 253 242 211 196 182 172 173 156 145 145 149 148 154 155 157 153 153 152 151 151 151 147 142 159 171
274 276 275 283 285 288 289 287 286 281 278 279 278 274 272 269 266 268 271 252 205 190 187 172 170 168 144 143 145 146 146 148 144 143 144 146 144 144 145 146 149 150 141 154
276 275 272 271 273 281 287 281 275 276 275 271 270 274 275 270 270 274 271 224 196 206 194 174 174 164 144 142 139 136 137 139 140 144 145 146 147 148 150 152 155 161 170 171
269 268 268 272 274 274 272 271 270 271 270 270 271 274 270 263 265 266 268 232 188 192 182 168 160 143 140 142 141 140 137 142 142 140 149 154 153 155 157 159 164 170 178 191
266 269 269 269 273 275 277 275 276 277 276 278 278 268 257 250 244 242 241 159 106 91 129 149 141 133 133 133 132 135 139 143 148 150 149 150 150 151 154 158 163 166 166 183
285 283 284 283 279 274 277 281 284 286 284 277 274 267 263 258 238 219 183 158 164 189 207 139 135 129 131 134 130 134 138 140 140 141 144 150 142 142 147 152 156 160 163 167
308 309 306 302 299 291 287 290 292 292 291 284 279 281 280 276 240 170 134 181 249 216 160 144 139 136 135 136 128 135 141 144 144 144 144 146 146 146 146 148 149 153 158 165
320 317 318 318 320 315 300 292 287 284 290 285 269 262 260 282 263 162 136 203 304 112 135 136 131 132 131 136 131 135 141 144 145 147 148 147 145 144 144 145 149 156 160 162
323 322 323 325 329 330 329 328 310 299 305 316 315 279 175 55 59 56 48 218 190 116 104 120 129 135 136 130 130 134 137 138 138 139 141 143 145 146 148 149 153 160 162 165
329 331 332 334 335 335 343 355 353 329 316 316 304 286 244 236 157 136 121 316 132 122 110 123 134 132 124 116 123 128 132 134 135 137 140 142 144 148 150 152 157 161 166 175
339 340 338 336 341 351 353 359 13 14 8 358 354 358 64 68 39 39 96 129 124 114 112 126 126 122 110 108 118 123 127 128 130 132 133 133 137 142 148 155 163 172 178 190
340 339 342 346 349 346 355 15 29 33 33 29 23 25 29 49 100 98 98 116 117 104 102 112 110 102 96 104 113 118 120 127 132 132 133 135 140 144 152 162 168 178 190 208
341 341 340 339 335 341 2 14 19 25 38 39 34 35 45 60 80 88 90 91 93 88 86 93 101 96 97 104 107 110 114 116 109 110 125 135 145 153 163 172 185 203 215 226
342 346 353 2 8 11 12 13 17 22 38 56 56 47 50 61 76 81 84 87 88 85 84 85 89 94 98 102 103 102 105 111 116 120 126 134 141 150 171 190 210 223 233 237